| time (UTC) | temp C | wind direction | speed KPH | gust KPH | rain 1hr cm | rain 24hr cm | rain mn cm | humidity % | barometer mb |
| 20260902185004 | 25 | 45 | 0.0 | 0.0 | 0.20 | 1.14 | 1.14 | 92 | 1016.2 |
| 20260902183503 | 24 | 45 | 0.0 | 3.2 | 1.12 | 1.12 | 1.12 | 91 | 1016.6 |
| 20260902183005 | 24 | 46 | 1.6 | 3.2 | 1.12 | 1.12 | 1.12 | 90 | 1016.7 |
| 20260902182504 | 25 | 45 | 1.6 | 3.2 | 1.12 | 1.12 | 1.12 | 90 | 1016.5 |
| 20260902182004 | 25 | 46 | 0.0 | 3.2 | 1.09 | 1.09 | 1.09 | 89 | 1016.7 |
| 20260902180503 | 25 | 125 | 1.6 | 3.2 | 0.99 | 0.99 | 0.99 | 87 | 1016.8 |
| 20260902180008 | 26 | 194 | 1.6 | 3.2 | 0.99 | 0.99 | 0.99 | 85 | 1016.7 |
| 20260902175503 | 26 | 197 | 3.2 | 6.4 | 0.99 | 0.99 | 0.99 | 84 | 1016.7 |
| 20260902175007 | 26 | 10 | 3.2 | 16.1 | 0.91 | 0.91 | 0.91 | 81 | 1017.0 |
| 20260902174532 | 27 | 304 | 3.2 | 19.3 | 0.51 | 0.51 | 0.51 | 78 | 1017.2 |
| 20260902174004 | 28 | 184 | 1.6 | 19.3 | 0.18 | 0.18 | 0.18 | 76 | 1017.5 |
| 20260902172503 | 30 | 55 | 1.6 | 4.8 | 0.00 | 0.00 | 0.00 | 70 | 1016.9 |
| 20260902172004 | 31 | 19 | 1.6 | 6.4 | 0.00 | 0.00 | 0.00 | 69 | 1016.8 |
| 20260902171005 | 31 | 51 | 1.6 | 9.7 | 0.00 | 0.00 | 0.00 | 72 | 1016.7 |
| 20260902170504 | 31 | 88 | 1.6 | 4.8 | 0.00 | 0.00 | 0.00 | 73 | 1016.8 |
| 20260902170005 | 31 | 103 | 1.6 | 3.2 | 0.00 | 0.00 | 0.00 | 74 | 1016.8 |
| 20260902165502 | 31 | 168 | 1.6 | 8.0 | 0.00 | 0.00 | 0.00 | 76 | 1016.8 |
| 20260902165003 | 31 | 67 | 1.6 | 8.0 | 0.00 | 0.00 | 0.00 | 77 | 1017.2 |
| 20260902164003 | 30 | 36 | 1.6 | 3.2 | 0.00 | 0.00 | 0.00 | 76 | 1017.4 |
| 20260902163502 | 30 | 342 | 1.6 | 9.7 | 0.00 | 0.00 | 0.00 | 76 | 1017.4 |
| 20260902163004 | 31 | 99 | 1.6 | 9.7 | 0.00 | 0.00 | 0.00 | 76 | 1017.4 |
| 20260902162503 | 31 | 112 | 1.6 | 4.8 | 0.00 | 0.00 | 0.00 | 77 | 1017.3 |
| 20260902162004 | 31 | 81 | 1.6 | 9.7 | 0.00 | 0.00 | 0.00 | 76 | 1017.3 |
| 20260902161502 | 31 | 128 | 1.6 | 4.8 | 0.00 | 0.00 | 0.00 | 76 | 1017.3 |
| 20260902161003 | 31 | 26 | 1.6 | 4.8 | 0.00 | 0.00 | 0.00 | 77 | 1017.3 |
| 20260902160005 | 31 | 145 | 3.2 | 6.4 | 0.00 | 0.00 | 0.00 | 78 | 1017.4 |
| 20260902155003 | 30 | 109 | 1.6 | 9.7 | 0.00 | 0.00 | 0.00 | 80 | 1017.4 |
| 20260902154503 | 30 | 74 | 0.0 | 4.8 | 0.00 | 0.00 | 0.00 | 80 | 1017.5 |
| 20260902153003 | 30 | 134 | 0.0 | 3.2 | 0.00 | 0.00 | 0.00 | 80 | 1017.4 |
| 20260902152503 | 30 | 17 | 1.6 | 3.2 | 0.00 | 0.00 | 0.00 | 80 | 1017.5 |
| 20260902152002 | 30 | 114 | 1.6 | 4.8 | 0.00 | 0.00 | 0.00 | 81 | 1017.4 |
| 20260902151503 | 30 | 169 | 1.6 | 4.8 | 0.00 | 0.00 | 0.00 | 81 | 1017.3 |
| 20260902151003 | 30 | 115 | 1.6 | 4.8 | 0.00 | 0.00 | 0.00 | 81 | 1017.3 |
| 20260902150503 | 29 | 70 | 1.6 | 6.4 | 0.00 | 0.00 | 0.00 | 82 | 1017.2 |
| 20260902145504 | 29 | 49 | 3.2 | 9.7 | 0.00 | 0.00 | 0.00 | 82 | 1017.2 |
| 20260902145003 | 29 | 61 | 1.6 | 6.4 | 0.00 | 0.00 | 0.00 | 83 | 1017.3 |
| 20260902144503 | 29 | 277 | 1.6 | 11.3 | 0.00 | 0.00 | 0.00 | 83 | 1017.3 |
| 20260902144004 | 28 | 146 | 1.6 | 11.3 | 0.00 | 0.00 | 0.00 | 84 | 1017.3 |
| 20260902143504 | 28 | 237 | 1.6 | 9.7 | 0.00 | 0.00 | 0.00 | 85 | 1017.2 |
| 20260902142503 | 27 | 88 | 1.6 | 6.4 | 0.00 | 0.00 | 0.00 | 86 | 1017.2 |
| 20260902141004 | 27 | 98 | 1.6 | 6.4 | 0.00 | 0.00 | 0.00 | 89 | 1017.0 |
| 20260902140503 | 27 | 98 | 1.6 | 8.0 | 0.00 | 0.00 | 0.00 | 89 | 1017.0 |
| 20260902135503 | 26 | 148 | 1.6 | 3.2 | 0.00 | 0.00 | 0.00 | 90 | 1017.0 |
| 20260902135004 | 26 | 141 | 1.6 | 9.7 | 0.00 | 0.00 | 0.00 | 90 | 1016.9 |
| 20260902134502 | 26 | 184 | 1.6 | 9.7 | 0.00 | 0.00 | 0.00 | 90 | 1016.9 |
| 20260902134003 | 26 | 137 | 1.6 | 6.4 | 0.00 | 0.00 | 0.00 | 91 | 1017.0 |
| 20260902133502 | 26 | 106 | 1.6 | 4.8 | 0.00 | 0.00 | 0.00 | 91 | 1016.9 |
| 20260902132503 | 26 | 136 | 0.0 | 11.3 | 0.00 | 0.00 | 0.00 | 92 | 1016.9 |
| 20260902132003 | 25 | 105 | 0.0 | 11.3 | 0.00 | 0.00 | 0.00 | 92 | 1017.0 |
| 20260902131503 | 25 | 96 | 0.0 | 0.0 | 0.00 | 0.00 | 0.00 | 92 | 1017.0 |
| 20260902131004 | 25 | 86 | 0.0 | 0.0 | 0.00 | 0.00 | 0.00 | 92 | 1017.0 |
| 20260902130004 | 25 | 98 | 0.0 | 0.0 | 0.00 | 0.00 | 0.00 | 93 | 1016.9 |
| 20260902125503 | 25 | 121 | 0.0 | 0.0 | 0.00 | 0.00 | 0.00 | 93 | 1016.9 |
| 20260902125003 | 25 | 121 | 0.0 | 3.2 | 0.00 | 0.00 | 0.00 | 93 | 1016.8 |
| 20260902124504 | 25 | 163 | 0.0 | 3.2 | 0.00 | 0.00 | 0.00 | 93 | 1016.8 |
| 20260902124004 | 25 | 92 | 0.0 | 1.6 | 0.00 | 0.00 | 0.00 | 93 | 1016.8 |
| 20260902123504 | 25 | 92 | 1.6 | 4.8 | 0.00 | 0.00 | 0.00 | 93 | 1016.7 |
| 20260902123004 | 25 | 111 | 1.6 | 6.4 | 0.00 | 0.00 | 0.00 | 93 | 1016.6 |
| 20260902122504 | 25 | 92 | 1.6 | 6.4 | 0.00 | 0.00 | 0.00 | 93 | 1016.7 |
| 20260902122005 | 25 | 78 | 0.0 | 3.2 | 0.00 | 0.00 | 0.00 | 93 | 1016.6 |
| 20260902121504 | 25 | 80 | 0.0 | 3.2 | 0.00 | 0.00 | 0.00 | 93 | 1016.5 |
| 20260902121007 | 25 | 138 | 1.6 | 3.2 | 0.00 | 0.00 | 0.00 | 93 | 1016.4 |
| 20260902115503 | 25 | 101 | 0.0 | 4.8 | 0.00 | 0.00 | 0.00 | 93 | 1016.5 |
| 20260902115005 | 25 | 101 | 0.0 | 4.8 | 0.00 | 0.00 | 0.00 | 93 | 1016.5 |
| 20260902114503 | 24 | 71 | 0.0 | 0.0 | 0.00 | 0.00 | 0.00 | 93 | 1016.5 |
| 20260902114003 | 24 | 71 | 0.0 | 0.0 | 0.00 | 0.00 | 0.00 | 92 | 1016.4 |
| 20260902113503 | 24 | 71 | 0.0 | 0.0 | 0.00 | 0.00 | 0.00 | 93 | 1016.4 |
| 20260902113004 | 24 | 71 | 0.0 | 0.0 | 0.00 | 0.00 | 0.00 | 93 | 1016.4 |
| 20260902112503 | 24 | 71 | 0.0 | 0.0 | 0.00 | 0.00 | 0.00 | 93 | 1016.1 |
| 20260902112003 | 24 | 72 | 0.0 | 0.0 | 0.00 | 0.00 | 0.00 | 93 | 1016.1 |
| 20260902111503 | 24 | 72 | 0.0 | 0.0 | 0.00 | 0.00 | 0.00 | 93 | 1016.0 |
| 20260902110007 | 24 | 124 | 0.0 | 0.0 | 0.00 | 0.00 | 0.00 | 92 | 1015.7 |
| 20260902105503 | 24 | 124 | 0.0 | 0.0 | 0.00 | 0.00 | 0.00 | 92 | 1015.8 |
| 20260902105003 | 24 | 134 | 0.0 | 0.0 | 0.00 | 0.00 | 0.00 | 92 | 1016.0 |
| 20260902103500 | 24 | 137 | 0.0 | 0.0 | 0.00 | 0.00 | 0.00 | 92 | 1015.9 |
| 20260902102502 | 24 | 140 | 0.0 | 0.0 | 0.00 | 0.00 | 0.00 | 92 | 1016.0 |
| 20260902102003 | 24 | 39 | 0.0 | 0.0 | 0.00 | 0.00 | 0.00 | 92 | 1016.0 |
| 20260902101503 | 24 | 39 | 0.0 | 0.0 | 0.00 | 0.00 | 0.00 | 92 | 1016.0 |
| 20260902101003 | 24 | 39 | 0.0 | 0.0 | 0.00 | 0.00 | 0.00 | 92 | 1016.0 |
| 20260902100503 | 24 | 39 | 0.0 | 0.0 | 0.00 | 0.00 | 0.00 | 92 | 1015.9 |
| 20260902100004 | 24 | 39 | 0.0 | 0.0 | 0.00 | 0.00 | 0.00 | 92 | 1015.9 |
| 20260902095500 | 24 | 82 | 0.0 | 0.0 | 0.00 | 0.00 | 0.00 | 92 | 1015.9 |
| 20260902095003 | 24 | 82 | 0.0 | 0.0 | 0.00 | 0.00 | 0.00 | 92 | 1015.8 |
| 20260902094504 | 24 | 82 | 0.0 | 0.0 | 0.00 | 0.00 | 0.00 | 92 | 1015.7 |
| 20260902094004 | 24 | 82 | 0.0 | 0.0 | 0.00 | 0.00 | 0.00 | 91 | 1015.6 |
| 20260902093503 | 24 | 82 | 0.0 | 0.0 | 0.00 | 0.00 | 0.00 | 91 | 1015.7 |
| 20260902093004 | 24 | 82 | 0.0 | 0.0 | 0.00 | 0.00 | 0.00 | 91 | 1015.6 |
| 20260902092503 | 25 | 82 | 0.0 | 0.0 | 0.00 | 0.00 | 0.00 | 91 | 1015.7 |
| 20260902092003 | 25 | 82 | 0.0 | 0.0 | 0.00 | 0.00 | 0.00 | 91 | 1015.7 |
| 20260902091503 | 25 | 82 | 0.0 | 0.0 | 0.00 | 0.00 | 0.00 | 91 | 1015.6 |
| 20260902091004 | 25 | 82 | 0.0 | 0.0 | 0.00 | 0.00 | 0.00 | 91 | 1015.5 |
| 20260902090503 | 25 | 82 | 0.0 | 0.0 | 0.00 | 0.00 | 0.00 | 91 | 1015.5 |
| 20260902090005 | 25 | 82 | 0.0 | 0.0 | 0.00 | 0.00 | 0.00 | 91 | 1015.6 |
| 20260902085503 | 25 | 82 | 0.0 | 3.2 | 0.00 | 0.00 | 0.00 | 91 | 1015.6 |
| 20260902085004 | 25 | 161 | 0.0 | 3.2 | 0.00 | 0.00 | 0.00 | 91 | 1015.7 |
| 20260902084503 | 25 | 169 | 0.0 | 4.8 | 0.00 | 0.00 | 0.00 | 91 | 1015.7 |
| 20260902084004 | 25 | 201 | 0.0 | 3.2 | 0.00 | 0.00 | 0.00 | 91 | 1015.5 |
| 20260902083503 | 25 | 201 | 0.0 | 4.8 | 0.00 | 0.00 | 0.00 | 91 | 1015.5 |
| 20260902082004 | 25 | 81 | 0.0 | 1.6 | 0.00 | 0.00 | 0.00 | 91 | 1015.6 |
| 20260902081503 | 25 | 110 | 0.0 | 1.6 | 0.00 | 0.00 | 0.00 | 90 | 1015.6 |
| 20260902081004 | 25 | 124 | 0.0 | 0.0 | 0.00 | 0.00 | 0.00 | 90 | 1015.6 |
| 20260902080005 | 25 | 124 | 0.0 | 0.0 | 0.00 | 0.00 | 0.00 | 90 | 1015.6 |
| 20260902075503 | 25 | 125 | 0.0 | 3.2 | 0.00 | 0.00 | 0.00 | 90 | 1015.7 |
| 20260902075003 | 25 | 125 | 0.0 | 3.2 | 0.00 | 0.00 | 0.00 | 90 | 1015.7 |
| 20260902074503 | 25 | 183 | 0.0 | 3.2 | 0.00 | 0.00 | 0.00 | 90 | 1015.6 |
| 20260902074003 | 25 | 137 | 0.0 | 6.4 | 0.00 | 0.00 | 0.00 | 90 | 1015.7 |
| 20260902073004 | 25 | 223 | 1.6 | 4.8 | 0.00 | 0.00 | 0.00 | 90 | 1015.8 |
| 20260902072501 | 25 | 119 | 1.6 | 4.8 | 0.00 | 0.00 | 0.00 | 89 | 1015.7 |
| 20260902072003 | 25 | 87 | 1.6 | 4.8 | 0.00 | 0.00 | 0.00 | 89 | 1015.9 |
| 20260902071504 | 25 | 115 | 0.0 | 3.2 | 0.00 | 0.00 | 0.00 | 89 | 1015.9 |
| 20260902070007 | 25 | 98 | 0.0 | 1.6 | 0.00 | 0.00 | 0.00 | 88 | 1016.1 |
| 20260902065503 | 25 | 98 | 0.0 | 4.8 | 0.00 | 0.00 | 0.00 | 88 | 1016.1 |
| 20260902065004 | 25 | 108 | 0.0 | 4.8 | 0.00 | 0.00 | 0.00 | 88 | 1016.1 |
| 20260902064503 | 25 | 145 | 0.0 | 3.2 | 0.00 | 0.00 | 0.00 | 88 | 1016.0 |
| 20260902064004 | 25 | 146 | 1.6 | 4.8 | 0.00 | 0.00 | 0.00 | 88 | 1016.1 |
| 20260902063504 | 25 | 90 | 1.6 | 8.0 | 0.00 | 0.00 | 0.00 | 88 | 1016.1 |
| 20260902063004 | 25 | 130 | 1.6 | 8.0 | 0.00 | 0.00 | 0.00 | 87 | 1016.1 |
| 20260902062503 | 25 | 90 | 0.0 | 6.4 | 0.00 | 0.00 | 0.00 | 87 | 1016.1 |
| 20260902062003 | 25 | 137 | 0.0 | 0.0 | 0.00 | 0.00 | 0.00 | 87 | 1016.1 |
| 20260902061003 | 25 | 75 | 0.0 | 0.0 | 0.00 | 0.00 | 0.00 | 87 | 1016.1 |
| 20260902060006 | 25 | 103 | 0.0 | 0.0 | 0.00 | 0.00 | 0.00 | 87 | 1016.1 |
| 20260902055504 | 25 | 88 | 1.6 | 6.4 | 0.00 | 0.00 | 0.00 | 86 | 1016.2 |
| 20260902055004 | 25 | 126 | 1.6 | 6.4 | 0.00 | 0.00 | 0.00 | 86 | 1016.2 |
| 20260902054504 | 25 | 200 | 0.0 | 3.2 | 0.00 | 0.00 | 0.00 | 86 | 1016.1 |
| 20260902054005 | 26 | 206 | 0.0 | 3.2 | 0.00 | 0.00 | 0.00 | 86 | 1016.1 |
| 20260902053505 | 26 | 207 | 1.6 | 6.4 | 0.00 | 0.00 | 0.00 | 85 | 1016.2 |
| 20260902052504 | 26 | 182 | 1.6 | 11.3 | 0.00 | 0.00 | 0.00 | 85 | 1016.0 |
| 20260902051504 | 26 | 49 | 1.6 | 11.3 | 0.00 | 0.00 | 0.00 | 85 | 1016.0 |
| 20260902051005 | 26 | 149 | 1.6 | 8.0 | 0.00 | 0.00 | 0.00 | 85 | 1015.9 |
| 20260902050009 | 26 | 24 | 1.6 | 4.8 | 0.00 | 0.00 | 0.00 | 85 | 1016.0 |
| 20260902045503 | 26 | 63 | 1.6 | 8.0 | 0.00 | 0.00 | 0.00 | 84 | 1016.0 |
| 20260902045004 | 26 | 157 | 1.6 | 8.0 | 0.00 | 0.00 | 0.00 | 84 | 1016.0 |
| 20260902044504 | 26 | 142 | 1.6 | 12.9 | 0.00 | 0.00 | 0.00 | 84 | 1016.0 |
| 20260902043504 | 26 | 113 | 1.6 | 4.8 | 0.00 | 0.00 | 0.00 | 84 | 1016.1 |
| 20260902043006 | 26 | 136 | 0.0 | 3.2 | 0.00 | 0.00 | 0.00 | 84 | 1016.0 |
| 20260902042504 | 26 | 113 | 0.0 | 4.8 | 0.00 | 0.00 | 0.00 | 84 | 1016.0 |
| 20260902042004 | 26 | 117 | 0.0 | 4.8 | 0.00 | 0.00 | 0.00 | 84 | 1016.0 |
| 20260902041504 | 26 | 101 | 0.0 | 1.6 | 0.00 | 0.00 | 0.00 | 83 | 1015.8 |
| 20260902041006 | 26 | 101 | 0.0 | 1.6 | 0.00 | 0.00 | 0.00 | 83 | 1015.8 |
| 20260902040504 | 26 | 101 | 0.0 | 4.8 | 0.00 | 0.00 | 0.00 | 83 | 1016.0 |
| 20260902040006 | 26 | 101 | 1.6 | 4.8 | 0.00 | 0.00 | 0.00 | 83 | 1015.8 |
| 20260902035504 | 26 | 88 | 0.0 | 4.8 | 0.00 | 0.00 | 0.00 | 83 | 1015.7 |
| 20260902035005 | 26 | 146 | 0.0 | 4.8 | 0.00 | 0.00 | 0.00 | 83 | 1015.6 |
| 20260902034004 | 26 | 95 | 1.6 | 6.4 | 0.00 | 0.00 | 0.00 | 82 | 1015.7 |
| 20260902033504 | 26 | 113 | 1.6 | 4.8 | 0.00 | 0.00 | 0.00 | 82 | 1015.6 |
| 20260902033004 | 26 | 130 | 1.6 | 4.8 | 0.00 | 0.00 | 0.00 | 82 | 1015.7 |
| 20260902032504 | 26 | 125 | 1.6 | 3.2 | 0.00 | 0.00 | 0.00 | 82 | 1015.6 |
| 20260902032004 | 26 | 137 | 1.6 | 4.8 | 0.00 | 0.00 | 0.00 | 82 | 1015.7 |
| 20260902031505 | 26 | 72 | 1.6 | 4.8 | 0.00 | 0.00 | 0.00 | 82 | 1015.7 |
| 20260902031003 | 26 | 127 | 1.6 | 9.7 | 0.00 | 0.00 | 0.00 | 82 | 1015.7 |
| 20260902030505 | 26 | 161 | 1.6 | 9.7 | 0.00 | 0.00 | 0.00 | 82 | 1015.7 |
| 20260902025004 | 26 | 123 | 0.0 | 4.8 | 0.00 | 0.00 | 0.00 | 81 | 1015.6 |
| 20260902024505 | 26 | 203 | 0.0 | 1.6 | 0.00 | 0.00 | 0.00 | 82 | 1015.6 |
| 20260902024004 | 26 | 108 | 0.0 | 3.2 | 0.00 | 0.00 | 0.00 | 81 | 1015.6 |
| 20260902023506 | 26 | 101 | 0.0 | 1.6 | 0.00 | 0.00 | 0.00 | 81 | 1015.6 |
| 20260902023005 | 26 | 108 | 0.0 | 0.0 | 0.00 | 0.00 | 0.00 | 81 | 1015.6 |
| 20260902022505 | 26 | 127 | 0.0 | 0.0 | 0.00 | 0.00 | 0.00 | 81 | 1015.6 |
| 20260902022004 | 26 | 127 | 0.0 | 0.0 | 0.00 | 0.00 | 0.00 | 81 | 1015.5 |
| 20260902021503 | 26 | 95 | 0.0 | 1.6 | 0.00 | 0.00 | 0.00 | 80 | 1015.4 |
| 20260902021004 | 26 | 95 | 0.0 | 3.2 | 0.00 | 0.00 | 0.00 | 80 | 1015.1 |
| 20260902020503 | 26 | 95 | 0.0 | 3.2 | 0.00 | 0.00 | 0.00 | 80 | 1014.8 |
| 20260902020004 | 26 | 105 | 0.0 | 3.2 | 0.00 | 0.00 | 0.00 | 79 | 1015.0 |
| 20260902015503 | 26 | 105 | 0.0 | 3.2 | 0.00 | 0.00 | 0.00 | 79 | 1014.9 |
| 20260902015003 | 26 | 63 | 0.0 | 0.0 | 0.00 | 0.00 | 0.00 | 78 | 1015.0 |
| 20260902014503 | 27 | 63 | 0.0 | 0.0 | 0.00 | 0.00 | 0.00 | 78 | 1015.2 |
| 20260902014004 | 27 | 63 | 0.0 | 0.0 | 0.00 | 0.00 | 0.00 | 78 | 1015.2 |
| 20260902013503 | 27 | 63 | 0.0 | 0.0 | 0.00 | 0.00 | 0.00 | 77 | 1015.0 |
| 20260902013004 | 27 | 63 | 0.0 | 0.0 | 0.00 | 0.00 | 0.00 | 77 | 1014.9 |
| 20260902011504 | 27 | 63 | 0.0 | 0.0 | 0.00 | 0.00 | 0.00 | 76 | 1015.1 |
| 20260902011003 | 27 | 63 | 0.0 | 0.0 | 0.00 | 0.00 | 0.00 | 75 | 1015.2 |
| 20260902010503 | 27 | 63 | 0.0 | 3.2 | 0.00 | 0.00 | 0.00 | 74 | 1015.1 |
| 20260902005504 | 28 | 74 | 1.6 | 4.8 | 0.00 | 0.00 | 0.00 | 73 | 1015.2 |
| 20260902005004 | 28 | 74 | 1.6 | 9.7 | 0.00 | 0.00 | 0.00 | 73 | 1015.2 |
| 20260902004503 | 28 | 188 | 1.6 | 4.8 | 0.00 | 0.00 | 0.00 | 73 | 1015.2 |
| 20260902004004 | 28 | 188 | 1.6 | 11.3 | 0.00 | 0.00 | 0.00 | 72 | 1015.2 |
| 20260902003503 | 28 | 148 | 3.2 | 11.3 | 0.00 | 0.00 | 0.00 | 72 | 1015.2 |
| 20260902003005 | 28 | 145 | 3.2 | 9.7 | 0.00 | 0.00 | 0.00 | 72 | 1015.3 |
| 20260902002502 | 28 | 108 | 1.6 | 6.4 | 0.00 | 0.00 | 0.00 | 72 | 1015.2 |
| 20260902002004 | 28 | 86 | 0.0 | 3.2 | 0.00 | 0.00 | 0.00 | 72 | 1015.2 |
| 20260902001503 | 28 | 54 | 1.6 | 4.8 | 0.00 | 0.00 | 0.00 | 72 | 1015.2 |
| 20260902001004 | 28 | 137 | 0.0 | 3.2 | 0.00 | 0.00 | 0.00 | 72 | 1015.1 |
| 20260902000503 | 28 | 70 | 0.0 | 3.2 | 0.00 | 0.00 | 0.00 | 71 | 1015.2 |
| 20260902000006 | 29 | 219 | 0.0 | 1.6 | 0.00 | 0.00 | 0.00 | 71 | 1015.3 |
| 20260901235507 | 29 | 219 | 1.6 | 6.4 | 0.00 | 0.00 | 0.00 | 70 | 1015.2 |
| 20260901235005 | 29 | 218 | 3.2 | 6.4 | 0.00 | 0.00 | 0.00 | 70 | 1015.2 |
| 20260901234504 | 29 | 137 | 1.6 | 6.4 | 0.00 | 0.00 | 0.00 | 70 | 1015.1 |
| 20260901234003 | 29 | 265 | 1.6 | 3.2 | 0.00 | 0.00 | 0.00 | 70 | 1015.1 |
| 20260901233504 | 29 | 102 | 1.6 | 9.7 | 0.00 | 0.00 | 0.00 | 71 | 1014.9 |
| 20260901233004 | 29 | 49 | 1.6 | 9.7 | 0.00 | 0.00 | 0.00 | 70 | 1015.0 |
| 20260901232504 | 29 | 56 | 0.0 | 3.2 | 0.00 | 0.00 | 0.00 | 71 | 1014.9 |
| 20260901231503 | 29 | 117 | 1.6 | 6.4 | 0.00 | 0.00 | 0.00 | 70 | 1014.9 |
| 20260901231004 | 30 | 100 | 1.6 | 6.4 | 0.00 | 0.00 | 0.00 | 70 | 1014.9 |
| 20260901230504 | 30 | 140 | 1.6 | 9.7 | 0.00 | 0.00 | 0.00 | 69 | 1014.8 |
| 20260901225504 | 30 | 94 | 0.0 | 6.4 | 0.00 | 0.00 | 0.00 | 70 | 1014.8 |
| 20260901225005 | 30 | 153 | 1.6 | 3.2 | 0.00 | 0.00 | 0.00 | 70 | 1014.7 |
| 20260901224504 | 30 | 153 | 1.6 | 4.8 | 0.00 | 0.00 | 0.00 | 70 | 1014.8 |
| 20260901223504 | 30 | 157 | 1.6 | 9.7 | 0.00 | 0.00 | 0.00 | 70 | 1014.8 |
| 20260901223007 | 30 | 207 | 3.2 | 9.7 | 0.00 | 0.00 | 0.00 | 70 | 1014.8 |
| 20260901222504 | 30 | 109 | 3.2 | 9.7 | 0.00 | 0.00 | 0.00 | 70 | 1014.8 |
| 20260901222004 | 29 | 264 | 1.6 | 8.0 | 0.00 | 0.00 | 0.00 | 69 | 1014.9 |
| 20260901221005 | 30 | 180 | 3.2 | 9.7 | 0.00 | 0.00 | 0.00 | 69 | 1014.8 |
| 20260901220503 | 30 | 188 | 3.2 | 9.7 | 0.00 | 0.00 | 0.00 | 69 | 1015.0 |
| 20260901220006 | 30 | 15 | 3.2 | 14.5 | 0.00 | 0.00 | 0.00 | 69 | 1014.9 |
| 20260901215004 | 30 | 133 | 3.2 | 12.9 | 0.00 | 0.00 | 0.00 | 69 | 1015.2 |
| 20260901214503 | 30 | 205 | 3.2 | 11.3 | 0.00 | 0.00 | 0.00 | 69 | 1015.2 |
| 20260901214003 | 30 | 119 | 1.6 | 11.3 | 0.00 | 0.00 | 0.00 | 69 | 1015.2 |
| 20260901213503 | 30 | 281 | 1.6 | 8.0 | 0.00 | 0.00 | 0.00 | 71 | 1015.2 |
| 20260901213004 | 30 | 294 | 1.6 | 8.0 | 0.00 | 0.00 | 0.00 | 70 | 1015.3 |
| 20260901212503 | 30 | 187 | 3.2 | 8.0 | 0.00 | 0.00 | 0.00 | 70 | 1015.2 |
| 20260901210504 | 30 | 127 | 3.2 | 8.0 | 0.00 | 0.00 | 0.00 | 70 | 1015.1 |
| 20260901210006 | 30 | 207 | 4.8 | 16.1 | 0.00 | 0.00 | 0.00 | 70 | 1015.2 |
| 20260901205506 | 30 | 177 | 4.8 | 12.9 | 0.00 | 0.00 | 0.00 | 70 | 1015.2 |
| 20260901204504 | 30 | 202 | 3.2 | 8.0 | 0.00 | 0.00 | 0.00 | 71 | 1015.1 |
| 20260901204004 | 30 | 61 | 3.2 | 11.3 | 0.00 | 0.00 | 0.00 | 70 | 1015.1 |
| 20260901203503 | 30 | 167 | 4.8 | 14.5 | 0.00 | 0.00 | 0.00 | 69 | 1015.2 |
| 20260901203004 | 30 | 193 | 4.8 | 14.5 | 0.00 | 0.00 | 0.00 | 68 | 1015.3 |
| 20260901202503 | 31 | 177 | 4.8 | 16.1 | 0.00 | 0.00 | 0.00 | 66 | 1015.3 |
| 20260901202004 | 31 | 202 | 4.8 | 20.9 | 0.00 | 0.00 | 0.00 | 63 | 1015.4 |
| 20260901201004 | 33 | 172 | 3.2 | 14.5 | 0.00 | 0.00 | 0.00 | 58 | 1015.4 |
| 20260901200503 | 33 | 198 | 4.8 | 17.7 | 0.00 | 0.00 | 0.00 | 55 | 1015.4 |
| 20260901200003 | 34 | 71 | 4.8 | 14.5 | 0.00 | 0.00 | 0.00 | 53 | 1015.4 |
| 20260901195503 | 35 | 111 | 4.8 | 17.7 | 0.00 | 0.00 | 0.00 | 52 | 1015.3 |
| 20260901195004 | 35 | 159 | 4.8 | 17.7 | 0.00 | 0.00 | 0.00 | 51 | 1015.3 |
| 20260901194503 | 36 | 140 | 3.2 | 9.7 | 0.00 | 0.00 | 0.00 | 50 | 1015.4 |
| 20260901194004 | 36 | 196 | 4.8 | 11.3 | 0.00 | 0.00 | 0.00 | 48 | 1015.4 |
| 20260901193504 | 36 | 83 | 6.4 | 16.1 | 0.00 | 0.00 | 0.00 | 49 | 1015.4 |
| 20260901193004 | 36 | 109 | 4.8 | 17.7 | 0.00 | 0.00 | 0.00 | 48 | 1015.7 |
| 20260901192503 | 36 | 117 | 4.8 | 14.5 | 0.00 | 0.00 | 0.00 | 47 | 1015.7 |
| 20260901191504 | 36 | 155 | 6.4 | 16.1 | 0.00 | 0.00 | 0.00 | 48 | 1015.5 |
| 20260901191004 | 36 | 219 | 4.8 | 24.1 | 0.00 | 0.00 | 0.00 | 47 | 1015.6 |
| 20260901190503 | 36 | 94 | 4.8 | 11.3 | 0.00 | 0.00 | 0.00 | 50 | 1015.6 |
| 20260901190004 | 36 | 95 | 4.8 | 11.3 | 0.00 | 0.00 | 0.00 | 50 | 1015.6 |
| 20260901185505 | 36 | 148 | 4.8 | 14.5 | 0.00 | 0.00 | 0.00 | 49 | 1015.6 |